• In Uzbekistan
  • List of Countries
  • For 7 days
  • Water Temperature
  • Satellite Maps
  • Weather Map
  • Weather Widgets
  • user-avatar
    Login

    Hourly Weather La Massana

    Today, 25 February, Saturday

    Time Temperature Precipitation Wind Pressure Humidity
    00:00 -7°C° 0 mm 3 mps 608 mmHg 81%
    01:00 -7°C° 0 mm 3 mps 608 mmHg 80%
    02:00 -7°C° 0 mm 3 mps 608 mmHg 79%
    03:00 -8°C° 0 mm 3 mps 607 mmHg 77%
    04:00 -8°C° 0 mm 3 mps 607 mmHg 76%
    05:00 -7°C° 0 mm 2 mps 607 mmHg 75%
    06:00 -7°C° 0 mm 2 mps 607 mmHg 74%
    07:00 -5°C° 0 mm 2 mps 608 mmHg 67%
    08:00 -3°C° 0 mm 2 mps 610 mmHg 60%
    09:00 -1°C° 0 mm 2 mps 611 mmHg 53%
    10:00 +3°C° 0 mm 1 mps 611 mmHg 49%
    11:00 +5°C° 0 mm 1 mps 612 mmHg 45%
    12:00 +6°C° 0 mm 1 mps 613 mmHg 41%
    13:00 +6°C° 0 mm 1 mps 612 mmHg 43%
    14:00 +6°C° 0 mm 1 mps 612 mmHg 45%
    15:00 +6°C° 0 mm 1 mps 612 mmHg 48%
    16:00 +3°C° 0 mm 1 mps 611 mmHg 60%
    17:00 +1°C° 0 mm 1 mps 610 mmHg 72%
    18:00 -2°C° 0 mm 1 mps 608 mmHg 84%
    19:00 -3°C° 0 mm 1 mps 609 mmHg 84%
    20:00 -3°C° 0 mm 1 mps 609 mmHg 85%
    21:00 -3°C° 0 mm 1 mps 609 mmHg 85%
    22:00 -3°C° 0 mm 1 mps 609 mmHg 85%
    23:00 -3°C° 0 mm 1 mps 609 mmHg 85%

    Tomorrow, 26 February, Sunday

    Time Temperature Precipitation Wind Pressure Humidity
    00:00 -4°C° 0 mm 1 mps 609 mmHg 84%
    01:00 -3°C° 0 mm 1 mps 609 mmHg 81%
    02:00 -3°C° 0 mm 1 mps 609 mmHg 79%
    03:00 -3°C° 0 mm 1 mps 609 mmHg 76%
    04:00 -3°C° 0 mm 1 mps 609 mmHg 73%
    05:00 -3°C° 0 mm 1 mps 609 mmHg 70%
    06:00 -3°C° 0 mm 1 mps 609 mmHg 68%
    07:00 -1°C° 0 mm 1 mps 610 mmHg 61%
    08:00 +2°C° 0 mm 1 mps 611 mmHg 54%
    09:00 +4°C° 0 mm 1 mps 613 mmHg 47%
    10:00 +6°C° 0 mm 1 mps 613 mmHg 45%
    11:00 +7°C° 0 mm 1 mps 613 mmHg 44%
    12:00 +8°C° 0 mm 1 mps 614 mmHg 42%
    13:00 +8°C° 0 mm 1 mps 613 mmHg 45%
    14:00 +8°C° 0 mm 1 mps 613 mmHg 48%
    15:00 +8°C° 0 mm 1 mps 612 mmHg 51%
    16:00 +5°C° 0 mm 1 mps 611 mmHg 63%
    17:00 +2°C° 0 mm 1 mps 609 mmHg 76%
    18:00 -1°C° 0 mm 1 mps 608 mmHg 89%
    19:00 -1°C° 0 mm 1 mps 607 mmHg 89%
    20:00 -3°C° 0 mm 0 mps 607 mmHg 90%
    21:00 -3°C° 0 mm 0 mps 607 mmHg 90%
    22:00 -3°C° 0 mm 0 mps 607 mmHg 89%
    23:00 -2°C° 0 mm 1 mps 607 mmHg 88%

    Day after tomorrow, 27 February, Monday

    Time Temperature Precipitation Wind Pressure Humidity
    00:00 -3°C° 0 mm 1 mps 606 mmHg 87%
    01:00 -2°C° 0 mm 1 mps 606 mmHg 84%
    02:00 -2°C° 0 mm 1 mps 606 mmHg 82%
    03:00 -2°C° 0 mm 1 mps 605 mmHg 79%
    04:00 -2°C° 0 mm 1 mps 605 mmHg 78%
    05:00 -2°C° 0 mm 1 mps 605 mmHg 76%
    06:00 -2°C° 0 mm 1 mps 605 mmHg 75%
    07:00 0°C° 0 mm 1 mps 606 mmHg 69%
    08:00 +2°C° 0 mm 1 mps 607 mmHg 63%
    09:00 +5°C° 0 mm 1 mps 608 mmHg 57%
    10:00 +6°C° 0 mm 1 mps 609 mmHg 53%
    11:00 +6°C° 0 mm 2 mps 609 mmHg 50%
    12:00 +8°C° 0 mm 2 mps 609 mmHg 46%
    13:00 +7°C° 0 mm 2 mps 609 mmHg 48%
    14:00 +7°C° 0 mm 2 mps 608 mmHg 49%
    15:00 +7°C° 0 mm 2 mps 608 mmHg 51%
    16:00 +5°C° 0 mm 2 mps 607 mmHg 63%
    17:00 +3°C° 0 mm 1 mps 606 mmHg 74%
    18:00 +1°C° 0 mm 1 mps 605 mmHg 85%
    19:00 0°C° 0 mm 1 mps 605 mmHg 88%
    20:00 0°C° 0 mm 1 mps 605 mmHg 90%
    21:00 -1°C° 0 mm 1 mps 606 mmHg 93%
    22:00 -1°C° 0 mm 1 mps 606 mmHg 92%
    23:00 -1°C° 0 mm 1 mps 605 mmHg 92%

    28 February, Tuesday

    Time Temperature Precipitation Wind Pressure Humidity
    00:00 -1°C° 0 mm 1 mps 605 mmHg 92%
    01:00 -1°C° 0 mm 1 mps 605 mmHg 92%
    02:00 -2°C° 0 mm 1 mps 604 mmHg 93%
    03:00 -2°C° 0 mm 1 mps 604 mmHg 93%
    04:00 -2°C° 0 mm 1 mps 604 mmHg 92%
    05:00 -2°C° 0 mm 1 mps 604 mmHg 92%
    06:00 -2°C° 0 mm 1 mps 604 mmHg 91%
    07:00 0°C° 0 mm 1 mps 605 mmHg 83%
    08:00 +2°C° 0 mm 1 mps 606 mmHg 74%
    09:00 +3°C° 0 mm 1 mps 607 mmHg 66%
    10:00 +3°C° 0 mm 2 mps 607 mmHg 62%
    11:00 +4°C° 0 mm 3 mps 608 mmHg 58%
    12:00 +5°C° 0 mm 3 mps 608 mmHg 54%
    13:00 +5°C° 0 mm 4 mps 608 mmHg 54%
    14:00 +5°C° 0 mm 4 mps 608 mmHg 54%
    15:00 +5°C° 0 mm 4 mps 608 mmHg 54%
    16:00 +3°C° 0 mm 3 mps 608 mmHg 65%
    17:00 +1°C° 0 mm 3 mps 607 mmHg 75%
    18:00 -1°C° 0 mm 2 mps 607 mmHg 86%
    19:00 -2°C° 0 mm 2 mps 607 mmHg 86%
    20:00 -2°C° 0 mm 2 mps 607 mmHg 87%
    21:00 -3°C° 0 mm 2 mps 608 mmHg 88%
    22:00 -3°C° 0 mm 2 mps 608 mmHg 86%
    23:00 -3°C° 0 mm 2 mps 608 mmHg 85%

    1 March, Wednesday

    Time Temperature Precipitation Wind Pressure Humidity
    00:00 -3°C° 0 mm 2 mps 608 mmHg 84%
    01:00 -3°C° 0 mm 2 mps 608 mmHg 85%
    02:00 -1°C° 0 mm 1 mps 608 mmHg 85%
    03:00 -2°C° 0 mm 1 mps 608 mmHg 86%
    04:00 -2°C° 0 mm 1 mps 608 mmHg 87%
    05:00 -2°C° 0 mm 1 mps 608 mmHg 88%
    06:00 -4°C° 0 mm 0 mps 608 mmHg 90%
    07:00 0°C° 0 mm 1 mps 609 mmHg 81%
    08:00 +2°C° 0 mm 1 mps 611 mmHg 72%
    09:00 +5°C° 0 mm 1 mps 612 mmHg 63%
    10:00 +6°C° 0 mm 1 mps 612 mmHg 61%
    11:00 +6°C° 0 mm 2 mps 612 mmHg 58%
    12:00 +7°C° 0 mm 2 mps 613 mmHg 55%
    13:00 +7°C° 0 mm 2 mps 612 mmHg 57%
    14:00 +7°C° 0 mm 2 mps 612 mmHg 59%
    15:00 +7°C° 0 mm 2 mps 612 mmHg 61%
    16:00 +4°C° 0 mm 2 mps 611 mmHg 71%
    17:00 +3°C° 0 mm 1 mps 610 mmHg 81%
    18:00 +1°C° 0 mm 1 mps 609 mmHg 92%
    19:00 -1°C° 0 mm 0 mps 609 mmHg 93%
    20:00 -1°C° 0 mm 0 mps 609 mmHg 94%
    21:00 -2°C° 0 mm 0 mps 609 mmHg 95%
    22:00 -2°C° 0 mm 0 mps 609 mmHg 95%
    23:00 -3°C° 0 mm 0 mps 609 mmHg 95%

    2 March, Thursday

    Time Temperature Precipitation Wind Pressure Humidity
    00:00 -3°C° 0 mm 0 mps 609 mmHg 95%
    01:00 -3°C° 0 mm 0 mps 608 mmHg 94%
    02:00 -3°C° 0 mm 0 mps 608 mmHg 94%
    03:00 -3°C° 0 mm 0 mps 608 mmHg 93%
    04:00 -4°C° 0 mm 0 mps 608 mmHg 93%
    05:00 -4°C° 0 mm 0 mps 608 mmHg 92%
    06:00 -3°C° 0 mm 1 mps 608 mmHg 92%
    07:00 0°C° 0 mm 1 mps 609 mmHg 80%
    08:00 +3°C° 0 mm 1 mps 611 mmHg 69%
    09:00 +6°C° 0 mm 1 mps 612 mmHg 57%
    10:00 +6°C° 0 mm 2 mps 612 mmHg 52%
    11:00 +7°C° 0 mm 2 mps 612 mmHg 47%
    12:00 +8°C° 0 mm 3 mps 612 mmHg 43%
    13:00 +8°C° 0 mm 3 mps 612 mmHg 45%
    14:00 +8°C° 0 mm 3 mps 611 mmHg 47%
    15:00 +8°C° 0 mm 3 mps 611 mmHg 49%
    16:00 +6°C° 0 mm 2 mps 610 mmHg 61%
    17:00 +4°C° 0 mm 1 mps 609 mmHg 72%
    18:00 +1°C° 0 mm 1 mps 607 mmHg 84%
    19:00 +1°C° 0 mm 1 mps 608 mmHg 83%
    20:00 +1°C° 0 mm 1 mps 608 mmHg 82%
    21:00 +1°C° 0 mm 1 mps 608 mmHg 81%
    22:00 +1°C° 0 mm 1 mps 608 mmHg 84%
    23:00 +1°C° 0 mm 1 mps 608 mmHg 87%
    Show more